Flag for U.S.A. Weather past 2 weeks in Decatur, Illinois, U.S.A.

Now
76 °F

Partly sunny.


Feels Like: 76 °F
Forecast: 71 / 81 °F
Wind: 23 mph from Southwest

Location: Decatur Airport

Current Time: Sep 1, 2014 at 9:22:06 AM

Latest Report: Sep 1, 2014 at 9:01 AM


Visibility: 10 mi

Pressure: 29.82 "Hg

Humidity: 85%

Dew point: 71 °F

Location of DecaturLocation

Historic Weather in Decatur — Graph

°F

Decatur temperature yesterday

Maximum temperature yesterday: 85 °F (at 4:54 PM)
Minimum temperature yesterday: 73 °F (at 1:54 AM)
Average temperature yesterday: 77 °F

Past Weeks' High & Low Weather Summary

 TemperatureHumidityPressure
High93 °F (Aug 25, 2:54 PM)100% (Aug 18, 3:54 AM)30.17 "Hg (Aug 18, 3:54 AM)
Low66 °F (Aug 18, 2:54 AM)50% (Aug 29, 4:54 PM)29.76 "Hg (Aug 19, 6:54 PM)
Average78 °F82%29.95 "Hg
* Reported Aug 17 7:54 AM — Sep 1 7:54 AM, Decatur, Weather by CustomWeather, © 2014

Note: Actual official high and low records may vary slightly from our data, if they occured in-between our weather recording intervals... More about our weather records

Advertising

Decatur weather history for previous 24 hours

 ConditionsComfort  
Time TempWeatherWind HumidityBarometerVisibility
7:54 AM
Sep 1
75 °FLow clouds.20 mph88%29.83 "Hg8 mi
6:54 AM74 °FMostly cloudy.15 mph91%29.84 "Hg9 mi
6:02 AM74 °FPassing clouds.14 mph91%29.86 "Hg10 mi
4:54 AM74 °FPassing clouds.14 mph91%29.84 "Hg10 mi
3:54 AM74 °FPassing clouds.12 mph91%29.85 "Hg10 mi
2:54 AM74 °FPassing clouds.10 mph91%29.86 "Hg10 mi
1:54 AM74 °FClear.10 mph91%29.87 "Hg10 mi
12:54 AM74 °FClear.9 mph88%29.88 "Hg10 mi
11:54 PM
Aug 31
74 °FClear.9 mph91%29.90 "Hg10 mi
10:54 PM73 °FClear.9 mph94%29.90 "Hg10 mi
9:54 PM76 °FClear.8 mph85%29.89 "Hg10 mi
8:54 PM77 °FClear.8 mph85%29.88 "Hg10 mi
7:54 PM78 °FSunny.7 mph79%29.89 "Hg10 mi
6:54 PM81 °FSunny.6 mph72%29.90 "Hg10 mi
5:54 PM84 °FSunny.10 mph65%29.90 "Hg10 mi
4:54 PM85 °FPassing clouds.9 mph61%29.90 "Hg10 mi
3:54 PM84 °FScattered clouds.8 mph65%29.91 "Hg10 mi
2:54 PM83 °FScattered clouds.10 mph68%29.93 "Hg10 mi
1:54 PM82 °FPartly sunny.9 mph72%29.94 "Hg10 mi
12:54 PM79 °FOvercast.9 mph79%29.96 "Hg10 mi
11:54 AM78 °FOvercast.8 mph79%29.97 "Hg10 mi
10:54 AM76 °FLow clouds.9 mph85%29.97 "Hg10 mi
9:54 AM75 °FLow clouds.7 mph88%29.97 "Hg9 mi
Weather by CustomWeather, © 2014

See weather overviewHow to use our weather pages